Schneifelwetter: Wetterstation Hallschlag, 537 m . NN
Wetterdaten: Montag, 14.11.2011
Datum Zeit Temp. A. Feuchte A. Luftdruck Regen Wind Richtung Richtung Sonnenschein Helligkeit T Regen Taupunkt Windchill
14.11.2011 00:09 -3,0 C 96 % 1026 hPa 0,0 l/m 0,0 km/h (0 Bft) N 5 0 min 0 lux 0 min -3,5 C -3,0 C
14.11.2011 00:24 -2,9 C 96 % 1026 hPa 0,0 l/m 0,0 km/h (0 Bft) N 5 0 min 0 lux 0 min -3,4 C -2,9 C
14.11.2011 00:39 -3,4 C 96 % 1026 hPa 0,0 l/m 0,0 km/h (0 Bft) N 5 0 min 0 lux 0 min -3,9 C -3,4 C
14.11.2011 00:54 -3,5 C 96 % 1026 hPa 0,0 l/m 0,0 km/h (0 Bft) N 5 0 min 0 lux 0 min -4,0 C -3,5 C
14.11.2011 01:09 -3,6 C 96 % 1026 hPa 0,0 l/m 0,0 km/h (0 Bft) N 5 0 min 0 lux 0 min -4,1 C -3,6 C
14.11.2011 01:24 -3,9 C 96 % 1026 hPa 0,0 l/m 0,0 km/h (0 Bft) N 5 0 min 0 lux 0 min -4,4 C -3,9 C
14.11.2011 01:39 -4,1 C 96 % 1026 hPa 0,0 l/m 0,0 km/h (0 Bft) N 5 0 min 0 lux 0 min -4,6 C -4,1 C
14.11.2011 01:54 -4,2 C 96 % 1026 hPa 0,0 l/m 0,0 km/h (0 Bft) N 5 0 min 0 lux 0 min -4,7 C -4,2 C
14.11.2011 02:09 -4,4 C 96 % 1026 hPa 0,0 l/m 0,0 km/h (0 Bft) N 5 0 min 0 lux 0 min -4,9 C -4,4 C
14.11.2011 02:24 -4,5 C 96 % 1026 hPa 0,0 l/m 0,0 km/h (0 Bft) N 5 0 min 0 lux 0 min -5,0 C -4,5 C
14.11.2011 02:39 -4,7 C 96 % 1025 hPa 0,0 l/m 0,0 km/h (0 Bft) N 5 0 min 0 lux 0 min -5,2 C -4,7 C
14.11.2011 02:54 -4,8 C 96 % 1025 hPa 0,0 l/m 0,0 km/h (0 Bft) N 5 0 min 0 lux 0 min -5,3 C -4,8 C
14.11.2011 03:09 -5,0 C 96 % 1025 hPa 0,0 l/m 0,0 km/h (0 Bft) N 5 0 min 0 lux 0 min -5,5 C -5,0 C
14.11.2011 03:24 -5,1 C 96 % 1025 hPa 0,0 l/m 0,0 km/h (0 Bft) N 5 0 min 0 lux 0 min -5,6 C -5,1 C
14.11.2011 03:39 -5,1 C 96 % 1025 hPa 0,0 l/m 0,0 km/h (0 Bft) N 5 0 min 0 lux 0 min -5,6 C -5,1 C
14.11.2011 03:54 -5,4 C 96 % 1025 hPa 0,0 l/m 0,0 km/h (0 Bft) N 5 0 min 0 lux 0 min -5,9 C -5,4 C
14.11.2011 04:09 -5,5 C 96 % 1025 hPa 0,0 l/m 0,0 km/h (0 Bft) N 5 0 min 0 lux 0 min -6,0 C -5,5 C
14.11.2011 04:24 -5,7 C 96 % 1025 hPa 0,0 l/m 0,0 km/h (0 Bft) N 5 0 min 0 lux 0 min -6,2 C -5,7 C
14.11.2011 04:39 -5,9 C 96 % 1025 hPa 0,0 l/m 0,0 km/h (0 Bft) N 5 0 min 0 lux 0 min -6,4 C -5,9 C
14.11.2011 04:54 -5,9 C 96 % 1025 hPa 0,0 l/m 0,0 km/h (0 Bft) N 360 0 min 0 lux 0 min -6,4 C -5,9 C
14.11.2011 05:09 -5,9 C 96 % 1024 hPa 0,0 l/m 0,0 km/h (0 Bft) N 360 0 min 0 lux 0 min -6,4 C -5,9 C
14.11.2011 05:24 -5,9 C 96 % 1024 hPa 0,0 l/m 0,0 km/h (0 Bft) N 360 0 min 0 lux 0 min -6,4 C -5,9 C
14.11.2011 05:39 -6,1 C 96 % 1025 hPa 0,0 l/m 0,0 km/h (0 Bft) N 360 0 min 0 lux 0 min -6,6 C -6,1 C
14.11.2011 05:54 -6,0 C 97 % 1024 hPa 0,0 l/m 0,0 km/h (0 Bft) N 360 0 min 0 lux 0 min -6,4 C -6,0 C
14.11.2011 06:09 -6,1 C 97 % 1024 hPa 0,0 l/m 0,0 km/h (0 Bft) N 360 0 min 0 lux 0 min -6,5 C -6,1 C
14.11.2011 06:24 -5,7 C 97 % 1024 hPa 0,0 l/m 0,0 km/h (0 Bft) N 360 0 min 0 lux 0 min -6,1 C -5,7 C
14.11.2011 06:39 -5,5 C 97 % 1024 hPa 0,0 l/m 0,0 km/h (0 Bft) N 360 0 min 0 lux 0 min -5,9 C -5,5 C
14.11.2011 06:54 -5,9 C 96 % 1024 hPa 0,0 l/m 0,0 km/h (0 Bft) N 360 0 min 0 lux 0 min -6,4 C -5,9 C
14.11.2011 07:09 -5,9 C 97 % 1024 hPa 0,0 l/m 0,0 km/h (0 Bft) N 360 0 min 0 lux 0 min -6,3 C -5,9 C
14.11.2011 07:24 -6,0 C 97 % 1024 hPa 0,0 l/m 0,0 km/h (0 Bft) N 360 0 min 232 lux 0 min -6,4 C -6,0 C
14.11.2011 07:39 -6,2 C 97 % 1024 hPa 0,0 l/m 0,0 km/h (0 Bft) N 360 0 min 603 lux 0 min -6,6 C -6,2 C
14.11.2011 07:54 -6,3 C 97 % 1024 hPa 0,0 l/m 0,0 km/h (0 Bft) N 360 0 min 1,42 klux 0 min -6,7 C -6,3 C
14.11.2011 08:15 -6,3 C 97 % 1024 hPa 0,0 l/m 0,0 km/h (0 Bft) N 360 0 min 3,16 klux 0 min -6,7 C -6,3 C
14.11.2011 08:30 -6,1 C 97 % 1024 hPa 0,0 l/m 0,0 km/h (0 Bft) N 360 0 min 10,9 klux 0 min -6,5 C -6,1 C
14.11.2011 08:45 -5,7 C 97 % 1024 hPa 0,0 l/m 0,0 km/h (0 Bft) N 360 0 min 13,7 klux 0 min -6,1 C -5,7 C
14.11.2011 09:00 -5,1 C 97 % 1024 hPa 0,0 l/m 0,0 km/h (0 Bft) N 360 0 min 18,4 klux 0 min -5,5 C -5,1 C
14.11.2011 09:15 -4,6 C 97 % 1024 hPa 0,0 l/m 0,0 km/h (0 Bft) N 360 0 min 22,7 klux 0 min -5,0 C -4,6 C
14.11.2011 09:30 -4,0 C 97 % 1024 hPa 0,0 l/m 0,0 km/h (0 Bft) N 360 0 min 27,1 klux 0 min -4,4 C -4,0 C
14.11.2011 09:45 -3,3 C 98 % 1024 hPa 0,0 l/m 0,0 km/h (0 Bft) N 360 0 min 33,5 klux 0 min -3,6 C -3,3 C
14.11.2011 10:00 -2,6 C 98 % 1024 hPa 0,0 l/m 0,0 km/h (0 Bft) N 360 0 min 34,5 klux 0 min -2,9 C -2,6 C
14.11.2011 10:15 -2,0 C 98 % 1023 hPa 0,0 l/m 0,0 km/h (0 Bft) N 360 0 min 32,7 klux 0 min -2,3 C -2,0 C
14.11.2011 10:30 -1,3 C 98 % 1023 hPa 0,0 l/m 0,0 km/h (0 Bft) N 360 0 min 35,5 klux 0 min -1,6 C -1,3 C
14.11.2011 10:45 -0,4 C 98 % 1023 hPa 0,0 l/m 0,0 km/h (0 Bft) N 360 0 min 39,0 klux 0 min -0,7 C -0,4 C
14.11.2011 11:00 0,6 C 98 % 1024 hPa 0,0 l/m 0,0 km/h (0 Bft) N 360 15 min 40,2 klux 0 min 0,3 C 0,6 C
14.11.2011 11:15 1,5 C 98 % 1023 hPa 0,0 l/m 0,0 km/h (0 Bft) N 360 15 min 40,9 klux 0 min 1,2 C 1,5 C
14.11.2011 11:30 2,5 C 98 % 1023 hPa 0,0 l/m 0,0 km/h (0 Bft) N 360 15 min 41,5 klux 0 min 2,2 C 2,5 C
14.11.2011 11:45 3,2 C 98 % 1023 hPa 0,0 l/m 0,0 km/h (0 Bft) N 360 15 min 42,7 klux 0 min 2,9 C 3,2 C
14.11.2011 12:00 4,3 C 98 % 1023 hPa 0,3 l/m 0,0 km/h (0 Bft) N 360 15 min 43,4 klux 15 min 4,0 C 4,3 C
14.11.2011 12:15 5,1 C 98 % 1023 hPa 0,0 l/m 0,0 km/h (0 Bft) N 360 15 min 43,3 klux 0 min 4,8 C 5,1 C
14.11.2011 12:30 5,6 C 97 % 1023 hPa 0,0 l/m 0,0 km/h (0 Bft) N 360 15 min 43,5 klux 0 min 5,2 C 5,6 C
14.11.2011 12:45 6,4 C 96 % 1022 hPa 0,0 l/m 0,0 km/h (0 Bft) N 360 15 min 43,4 klux 0 min 5,8 C 6,4 C
14.11.2011 13:00 7,0 C 95 % 1022 hPa 0,0 l/m 0,0 km/h (0 Bft) N 360 15 min 42,9 klux 0 min 6,3 C 7,0 C
14.11.2011 13:15 7,7 C 92 % 1022 hPa 0,0 l/m 10,5 km/h (2 Bft) W-SW22.5 250 15 min 42,3 klux 0 min 6,5 C 4,7 C
14.11.2011 13:30 8,1 C 90 % 1022 hPa 0,0 l/m 7,6 km/h (2 Bft) W-SW 250 15 min 41,7 klux 0 min 6,6 C 7,2 C
14.11.2011 13:45 8,3 C 88 % 1022 hPa 0,0 l/m 3,1 km/h (1 Bft) W-SW 240 15 min 40,5 klux 0 min 6,4 C 8,3 C
14.11.2011 14:00 8,4 C 87 % 1021 hPa 0,0 l/m 0,3 km/h (0 Bft) W-SW 240 0 min 38,9 klux 0 min 6,4 C 8,4 C
14.11.2011 14:15 8,7 C 85 % 1021 hPa 0,0 l/m 0,3 km/h (0 Bft) W-SW 240 0 min 37,3 klux 0 min 6,3 C 8,7 C
14.11.2011 14:30 8,9 C 84 % 1021 hPa 0,0 l/m 0,0 km/h (0 Bft) W-SW 240 0 min 35,3 klux 0 min 6,3 C 8,9 C
14.11.2011 14:45 9,1 C 82 % 1021 hPa 0,0 l/m 3,4 km/h (1 Bft) W-SW 240 0 min 33,0 klux 0 min 6,2 C 9,1 C
14.11.2011 15:00 9,6 C 79 % 1021 hPa 0,0 l/m 6,5 km/h (2 Bft) NO22.5 35 0 min 30,3 klux 0 min 6,1 C 9,6 C
14.11.2011 15:15 9,6 C 78 % 1021 hPa 0,0 l/m 14,0 km/h (3 Bft) O-NO22.5 70 0 min 27,9 klux 0 min 6,0 C 5,1 C
14.11.2011 15:30 9,2 C 79 % 1021 hPa 0,0 l/m 12,0 km/h (2 Bft) O-NO45 75 0 min 24,3 klux 0 min 5,8 C 5,6 C
14.11.2011 15:45 8,7 C 77 % 1021 hPa 0,0 l/m 11,3 km/h (2 Bft) O-NO45 70 0 min 20,7 klux 0 min 4,9 C 5,4 C
14.11.2011 16:00 8,4 C 76 % 1021 hPa 0,0 l/m 11,0 km/h (2 Bft) O-NO67.5 70 0 min 17,4 klux 0 min 4,4 C 5,2 C
14.11.2011 16:15 8,0 C 75 % 1021 hPa 0,0 l/m 10,6 km/h (2 Bft) NO22.5 50 0 min 13,4 klux 0 min 3,8 C 5,0 C
14.11.2011 16:30 7,5 C 76 % 1021 hPa 0,0 l/m 10,6 km/h (2 Bft) O-NO22.5 60 0 min 8,96 klux 0 min 3,5 C 4,5 C
14.11.2011 16:45 7,0 C 77 % 1021 hPa 0,0 l/m 10,1 km/h (2 Bft) O 80 0 min 3,23 klux 0 min 3,2 C 4,2 C
14.11.2011 17:00 6,0 C 79 % 1020 hPa 0,0 l/m 6,8 km/h (2 Bft) O-NO 75 0 min 993 lux 0 min 2,6 C 5,7 C
14.11.2011 17:16 5,1 C 80 % 1021 hPa 0,0 l/m 5,6 km/h (1 Bft) O-NO 75 0 min 232 lux 0 min 1,9 C 5,1 C
14.11.2011 17:30 3,9 C 82 % 1021 hPa 0,0 l/m 5,6 km/h (1 Bft) O-NO 75 0 min 22 lux 0 min 1,1 C 3,9 C
14.11.2011 17:45 3,3 C 82 % 1020 hPa 0,0 l/m 6,5 km/h (2 Bft) O-NO 75 0 min 1 lux 0 min 0,5 C 3,2 C
14.11.2011 18:00 2,3 C 83 % 1020 hPa 0,0 l/m 0,0 km/h (0 Bft) O-NO 75 0 min 0 lux 0 min -0,3 C 2,3 C
14.11.2011 18:15 1,2 C 84 % 1021 hPa 0,0 l/m 0,0 km/h (0 Bft) O-NO 75 0 min 0 lux 0 min -1,2 C 1,2 C
14.11.2011 18:30 0,5 C 85 % 1021 hPa 0,0 l/m 0,0 km/h (0 Bft) O-NO 75 0 min 0 lux 0 min -1,7 C 0,5 C
14.11.2011 18:45 -0,4 C 86 % 1021 hPa 0,0 l/m 0,9 km/h (0 Bft) O-NO 75 0 min 0 lux 0 min -2,4 C -0,4 C
14.11.2011 19:00 -0,8 C 88 % 1021 hPa 0,0 l/m 0,0 km/h (0 Bft) O-NO 75 0 min 0 lux 0 min -2,5 C -0,8 C
14.11.2011 19:15 -1,3 C 88 % 1021 hPa 0,0 l/m 0,0 km/h (0 Bft) O-NO 75 0 min 0 lux 0 min -3,0 C -1,3 C
14.11.2011 19:30 -1,8 C 88 % 1020 hPa 0,0 l/m 0,0 km/h (0 Bft) O-NO 75 0 min 0 lux 0 min -3,5 C -1,8 C
14.11.2011 19:45 -2,1 C 90 % 1021 hPa 0,0 l/m 0,6 km/h (0 Bft) O-NO 75 0 min 0 lux 0 min -3,5 C -2,1 C
14.11.2011 20:00 -1,9 C 92 % 1021 hPa 0,0 l/m 9,0 km/h (2 Bft) NO 35 0 min 0 lux 0 min -3,0 C -4,6 C
14.11.2011 20:15 -0,9 C 94 % 1021 hPa 0,0 l/m 10,6 km/h (2 Bft) NO22.5 40 0 min 0 lux 0 min -1,7 C -4,9 C
14.11.2011 20:30 -0,6 C 94 % 1021 hPa 0,0 l/m 14,3 km/h (3 Bft) NO22.5 50 0 min 0 lux 0 min -1,4 C -7,3 C
14.11.2011 20:45 -0,7 C 94 % 1021 hPa 0,0 l/m 11,1 km/h (2 Bft) NO22.5 45 0 min 0 lux 0 min -1,5 C -5,1 C
14.11.2011 21:00 -1,1 C 92 % 1020 hPa 0,0 l/m 8,7 km/h (2 Bft) NO 35 0 min 0 lux 0 min -2,2 C -3,5 C
14.11.2011 21:15 -2,2 C 91 % 1020 hPa 0,0 l/m 4,6 km/h (1 Bft) NO 35 0 min 0 lux 0 min -3,5 C -2,2 C
14.11.2011 21:30 -3,0 C 91 % 1020 hPa 0,0 l/m 0,0 km/h (0 Bft) NO 35 0 min 0 lux 0 min -4,3 C -3,0 C
14.11.2011 21:46 -3,6 C 91 % 1020 hPa 0,0 l/m 0,0 km/h (0 Bft) NO 35 0 min 0 lux 0 min -4,8 C -3,6 C
14.11.2011 22:00 -3,8 C 93 % 1020 hPa 0,0 l/m 5,4 km/h (1 Bft) NO 35 0 min 0 lux 0 min -4,8 C -3,8 C
14.11.2011 22:15 -3,6 C 93 % 1020 hPa 0,0 l/m 5,0 km/h (1 Bft) NO 35 0 min 0 lux 0 min -4,6 C -3,6 C
14.11.2011 22:30 -4,1 C 93 % 1020 hPa 0,0 l/m 0,0 km/h (0 Bft) NO 35 0 min 0 lux 0 min -5,1 C -4,1 C
14.11.2011 22:45 -4,6 C 92 % 1020 hPa 0,0 l/m 0,0 km/h (0 Bft) NO 35 0 min 0 lux 0 min -5,7 C -4,6 C
14.11.2011 23:00 -4,8 C 93 % 1020 hPa 0,0 l/m 0,0 km/h (0 Bft) NO 35 0 min 0 lux 0 min -5,8 C -4,8 C
14.11.2011 23:15 -5,1 C 93 % 1019 hPa 0,0 l/m 0,0 km/h (0 Bft) NO 35 0 min 0 lux 0 min -6,1 C -5,1 C
14.11.2011 23:30 -5,6 C 93 % 1019 hPa 0,0 l/m 0,0 km/h (0 Bft) NO 35 0 min 0 lux 0 min -6,5 C -5,6 C
14.11.2011 23:45 -5,8 C 93 % 1019 hPa 0,0 l/m 0,0 km/h (0 Bft) NO 35 0 min 0 lux 0 min -6,7 C -5,8 C
_ Min-Zeit 07:54 16:15 23:15 - 00:09 - - - - - 23:45 20:30
Minimum _ -6,3 C 75 % 1019 hPa - 0,0 km/h (0 Bft) - - - - - -6,7 C -7,3 C
_ Max-Zeit 15:00 09:45 00:09 12:00 20:30 - - 11:00 12:30 12:00 13:30 15:00
Maximum _ 9,6 C 98 % 1026 hPa 0,3 l/m 14,3 km/h
NO (3 Bft)
- - 15 min 43,5 klux 15 min 6,6 C 9,6 C
Durchschnitt _ -0,8 C 92 % 1023 hPa #0,3 l/m 2,2 km/h (1 Bft) NO - #3:00 h 11,3 klux #15 min. -2,0 C -1,3 C